Wind_Speed
47 46 44 45 46 46 44 39 35 31 32 33 34 34 31 29 27 27 26 25 25 23 21 19 16 13 12 13 13 14 13 13 10 9 9 8 8 8 8 8 9 10 11
50 47 46 44 43 45 46 43 39 36 34 34 35 37 36 34 30 30 29 29 29 27 24 23 20 18 16 16 14 15 15 13 12 12 11 10 10 10 12 11 10 10 12
52 52 50 49 48 47 47 45 44 41 38 37 37 38 40 40 37 33 32 32 31 29 27 24 23 22 21 20 18 17 17 15 15 14 11 14 14 13 12 13 13 16 19
46 47 51 51 50 47 46 46 46 44 42 41 40 39 39 41 41 38 36 34 33 32 30 27 26 25 23 24 23 20 19 19 19 18 16 15 16 17 16 16 14 15 19
45 45 45 44 46 47 48 46 45 48 46 43 42 41 40 42 45 44 42 40 38 35 34 31 31 28 26 25 26 23 22 21 21 19 18 14 16 18 18 14 20 19 23
45 44 43 43 43 44 46 46 45 47 49 48 47 45 44 45 47 47 44 43 42 38 38 34 34 32 32 30 27 26 27 27 26 21 18 18 19 18 19 18 19 20 20
46 43 45 45 45 45 44 45 46 48 49 52 51 50 49 47 46 47 46 46 46 44 41 38 38 36 33 35 31 31 31 29 29 27 24 22 21 19 20 22 23 20 19
43 43 44 45 45 46 44 44 44 47 49 52 54 53 52 49 47 47 47 47 49 48 44 42 41 37 35 34 31 37 33 30 29 28 25 23 21 20 21 24 21 22 21
40 41 42 43 44 45 45 44 45 47 47 51 54 55 55 52 49 48 48 48 51 52 48 45 40 37 33 33 28 30 29 30 28 24 23 21 20 21 21 22 19 18 17
37 36 39 40 43 44 44 45 45 47 46 46 51 54 56 56 54 52 51 51 51 52 52 48 43 38 34 30 25 28 28 29 25 24 21 19 18 17 14 14 11 10 12
34 34 35 36 38 40 41 42 41 40 32 41 44 47 49 51 55 57 55 55 54 51 49 47 43 40 38 28 24 22 24 25 22 20 19 18 17 13 12 11 11 10 9
34 35 36 33 33 32 34 36 36 31 28 20 38 42 44 41 47 51 52 48 45 52 53 52 47 41 31 24 21 13 18 22 22 21 19 16 14 13 12 10 10 8 8
27 25 25 25 23 26 29 28 27 26 34 39 39 40 41 33 36 37 31 32 34 47 53 53 45 35 29 23 14 17 22 24 23 21 16 15 14 14 12 10 9 9 10
14 9 11 16 20 21 22 21 21 24 29 35 29 33 33 32 33 34 26 26 30 42 21 8 22 22 14 14 16 21 24 23 23 18 17 16 17 15 11 9 8 9 10
14 14 14 16 18 20 21 21 22 23 23 24 27 33 33 34 36 35 32 28 26 24 7 18 14 15 17 18 25 28 24 25 24 21 20 19 18 15 10 10 10 10 9
10 10 10 12 14 16 17 19 18 17 16 20 24 28 31 31 31 27 19 20 30 28 18 9 18 24 26 29 27 25 25 25 24 23 21 21 18 12 9 11 10 10 9
7 8 10 12 13 13 15 14 11 10 12 18 20 15 15 9 6 1 9 20 28 31 19 36 22 31 32 27 25 23 24 23 24 22 22 20 16 12 11 10 10 9 9
11 9 8 9 10 12 10 11 12 12 16 20 18 11 10 12 11 20 21 19 20 25 34 35 32 34 28 26 24 23 23 24 23 22 21 18 14 11 12 9 8 8 8
11 11 11 12 12 10 12 15 16 15 17 16 16 16 9 7 14 17 21 24 29 27 25 24 19 27 26 23 23 23 23 23 22 21 18 16 13 11 10 8 8 9 10
14 11 10 11 14 17 18 18 20 18 16 16 14 11 9 17 20 23 28 26 24 22 23 21 22 23 23 23 24 24 23 22 21 19 18 15 13 11 8 9 8 8 8
16 11 9 12 14 13 11 12 10 8 10 7 3 7 12 16 19 16 13 11 14 17 21 20 21 22 22 22 23 22 22 22 19 17 15 13 14 10 10 9 7 8 9
13 13 12 10 11 8 8 6 4 6 7 7 10 14 14 16 19 16 17 17 18 19 20 20 20 20 19 20 21 21 20 19 17 16 15 15 14 12 12 9 7 8 9
13 8 7 8 9 7 6 7 6 5 4 6 7 16 18 16 17 18 19 20 21 21 21 20 20 19 17 16 16 17 17 17 16 15 15 15 15 14 11 8 8 9 10
12 7 5 8 11 10 6 2 4 6 7 11 17 19 19 18 17 17 18 20 20 21 21 20 18 15 10 9 12 14 16 16 15 15 16 16 16 15 10 9 10 11 12
8 5 6 7 5 3 3 2 1 4 9 16 17 16 16 17 16 18 19 21 22 23 21 18 14 10 8 8 8 9 11 12 14 16 18 18 15 13 11 10 10 11 12
8 6 9 10 9 7 5 5 3 0 2 8 11 11 11 12 16 21 23 25 25 23 19 15 12 9 12 11 11 9 7 7 10 15 17 17 15 13 12 12 12 12 13
Wind_Direction
233 233 234 239 241 239 239 238 235 235 235 234 232 233 234 233 234 236 236 235 233 233 234 241 244 248 251 252 251 246 246 249 244 257 249 252 256 262 263 258 260 269 287
233 233 233 234 239 241 239 240 238 235 235 235 234 232 233 234 235 236 238 237 233 231 232 237 241 244 247 251 251 252 247 247 242 250 248 249 251 260 251 249 250 253 287
233 232 235 238 239 241 242 239 239 236 235 234 236 235 233 234 235 235 236 238 237 235 235 237 240 243 245 249 249 251 249 246 246 242 242 249 252 257 251 258 261 276 295
234 233 234 236 239 241 244 241 237 237 235 234 235 237 236 234 233 235 234 235 236 235 236 237 240 241 244 248 249 249 249 249 249 251 248 250 249 252 255 264 267 274 281
232 235 237 238 238 240 242 241 237 236 235 233 234 236 238 236 234 233 233 234 237 236 238 239 242 244 245 248 246 246 249 249 247 248 250 247 246 247 248 257 266 275 284
235 240 241 240 240 238 239 240 239 236 235 234 233 234 236 237 237 235 234 235 237 238 240 242 246 248 249 250 247 246 247 245 244 240 244 245 260 261 259 263 275 277 283
236 240 241 242 242 241 239 238 238 236 235 234 233 234 236 238 240 240 237 237 240 241 243 245 248 250 252 252 253 255 243 243 244 247 249 256 262 268 270 273 271 276 282
237 237 241 243 244 244 241 240 240 237 235 235 235 234 236 239 241 243 243 239 244 246 246 248 250 253 256 259 253 257 245 240 239 244 247 253 259 268 270 266 266 285 284
238 240 243 245 245 245 245 244 241 240 239 237 238 239 238 239 241 242 243 241 241 245 245 246 246 250 253 257 260 247 250 244 238 237 241 248 255 263 259 257 270 282 284
240 244 245 243 245 246 249 247 243 242 242 241 239 241 244 244 243 244 243 244 242 239 240 243 243 243 245 244 234 241 246 241 239 234 236 243 255 255 248 251 259 260 276
247 250 252 253 252 251 251 251 250 248 244 249 246 246 247 250 252 251 247 244 241 240 239 236 233 231 235 219 221 226 242 244 235 234 238 241 248 239 243 249 251 252 260
244 250 254 254 253 250 251 251 249 246 252 290 270 259 255 249 255 258 259 255 248 255 245 232 220 218 209 208 211 208 220 233 232 231 235 232 225 229 232 234 243 259 260
246 256 249 246 251 251 251 247 238 243 236 218 241 255 258 259 263 267 269 266 252 248 249 242 216 185 188 191 191 223 212 220 236 233 215 215 214 217 220 225 243 259 277
236 242 244 249 248 243 240 235 225 218 229 236 242 245 249 255 256 257 256 254 252 232 228 300 157 143 196 212 216 218 217 221 225 216 211 210 215 210 213 232 244 260 275
210 214 212 212 219 226 223 222 229 237 238 237 240 239 239 239 243 249 242 236 217 210 207 162 234 222 229 234 220 210 209 215 212 208 212 214 206 207 214 242 247 271 281
169 184 194 200 204 212 223 229 232 232 248 249 246 251 240 245 243 242 231 201 187 186 146 208 188 227 237 223 210 203 204 205 206 211 216 209 204 203 217 244 260 270 275
137 151 164 176 187 195 202 218 226 196 205 205 192 170 157 98 103 256 216 202 221 258 233 177 215 232 231 206 199 206 207 201 208 210 211 206 204 210 235 245 260 265 277
128 135 150 166 176 180 186 197 202 196 182 172 174 195 244 283 247 215 213 201 181 187 179 182 172 217 201 197 203 199 195 202 200 204 206 210 216 226 237 235 236 260 254
109 124 140 154 168 182 197 193 193 191 193 222 240 252 248 214 209 211 178 177 174 176 198 197 197 202 199 198 194 197 196 198 204 205 204 213 224 229 221 213 234 229 247
109 113 125 135 147 160 173 185 192 204 243 265 262 242 216 181 184 184 184 186 187 185 204 217 187 187 186 188 190 193 198 204 201 201 209 218 225 213 207 213 205 225 248
93 102 120 138 155 176 196 222 226 229 250 244 180 182 183 188 199 198 194 198 194 195 181 173 179 178 180 183 192 197 199 200 202 210 217 219 223 210 198 202 203 228 235
75 93 107 130 128 153 152 164 166 153 133 131 137 152 167 169 196 175 157 156 153 160 168 169 170 177 182 184 188 193 200 208 213 218 221 221 217 194 194 198 215 227 238
67 78 128 144 153 163 190 191 171 173 186 181 177 153 159 164 164 164 165 161 159 161 164 168 172 173 180 188 198 204 209 215 218 214 214 213 199 196 195 193 215 226 239
78 78 109 129 124 128 144 169 188 195 210 172 166 164 164 164 170 171 168 167 167 168 166 166 168 171 179 194 203 203 202 203 204 206 210 206 194 199 196 207 209 223 236
102 122 141 153 156 183 204 181 167 177 176 168 173 179 176 172 174 173 173 171 170 168 168 170 172 167 158 161 173 182 196 203 207 211 205 199 191 204 207 213 214 225 233
73 92 91 86 94 87 45 0 348 229 128 182 177 190 197 195 191 186 182 180 176 176 179 184 189 182 170 153 136 132 146 170 195 199 200 201 206 213 212 212 217 222 232
Height
1489 1495 1501 1505 1510 1515 1520 1525 1530 1535 1538 1541 1545 1548 1551 1553 1556 1558 1559 1562 1564 1566 1568 1570 1571 1572 1573 1574 1576 1577 1578 1580 1581 1581 1580 1580 1581 1582 1581 1581 1581 1581 1582
1479 1485 1490 1496 1501 1505 1510 1515 1521 1526 1531 1534 1537 1541 1544 1547 1550 1552 1555 1556 1558 1560 1562 1565 1567 1568 1569 1569 1571 1572 1573 1574 1576 1576 1576 1575 1575 1575 1576 1577 1577 1577 1576
1468 1474 1480 1485 1490 1494 1499 1505 1511 1516 1521 1526 1530 1533 1536 1540 1543 1545 1547 1550 1552 1555 1557 1558 1560 1561 1563 1564 1565 1566 1568 1569 1570 1570 1571 1570 1570 1570 1570 1571 1572 1572 1571
1455 1462 1468 1473 1477 1483 1489 1495 1500 1505 1511 1515 1519 1524 1528 1531 1534 1537 1540 1542 1545 1548 1550 1552 1554 1555 1556 1558 1560 1561 1562 1563 1565 1566 1567 1565 1566 1566 1567 1567 1566 1565 1564
1446 1451 1454 1459 1466 1473 1477 1482 1488 1494 1499 1505 1509 1512 1517 1520 1523 1526 1530 1532 1535 1539 1541 1544 1547 1548 1550 1551 1552 1555 1558 1559 1560 1560 1560 1562 1561 1560 1561 1563 1561 1560 1560
1436 1439 1445 1451 1455 1459 1465 1470 1477 1482 1487 1493 1497 1501 1505 1507 1511 1515 1521 1524 1526 1530 1533 1537 1540 1543 1544 1545 1548 1549 1549 1551 1552 1554 1556 1556 1557 1557 1557 1557 1558 1557 1555
1427 1432 1437 1440 1444 1448 1454 1460 1464 1469 1476 1480 1485 1489 1491 1496 1501 1505 1511 1515 1517 1520 1524 1528 1529 1532 1537 1538 1540 1540 1540 1543 1546 1548 1549 1550 1550 1551 1552 1552 1551 1551 1551
1419 1424 1428 1432 1435 1440 1446 1448 1453 1457 1462 1466 1471 1475 1480 1483 1489 1494 1499 1505 1505 1508 1512 1518 1521 1526 1528 1531 1532 1534 1535 1536 1539 1543 1541 1543 1543 1543 1544 1545 1545 1546 1545
1410 1415 1418 1421 1427 1431 1434 1437 1441 1446 1450 1453 1458 1463 1465 1469 1474 1479 1485 1489 1492 1494 1499 1504 1508 1513 1517 1519 1526 1529 1532 1532 1531 1533 1536 1537 1538 1536 1536 1538 1541 1541 1541
1400 1403 1408 1415 1419 1421 1423 1427 1432 1435 1438 1444 1448 1451 1454 1459 1461 1466 1471 1475 1475 1474 1478 1486 1493 1499 1504 1507 1507 1519 1525 1526 1530 1531 1530 1530 1532 1532 1530 1532 1535 1538 1539
1393 1398 1401 1405 1409 1415 1421 1426 1430 1436 1444 1444 1441 1443 1445 1447 1452 1452 1452 1455 1457 1464 1464 1463 1471 1480 1487 1490 1495 1501 1515 1527 1525 1527 1527 1527 1527 1527 1527 1530 1529 1531 1535
1387 1391 1395 1399 1404 1407 1411 1415 1421 1425 1437 1441 1443 1447 1441 1434 1436 1441 1446 1448 1455 1456 1454 1447 1447 1463 1476 1485 1491 1491 1507 1519 1522 1521 1521 1522 1524 1523 1522 1523 1526 1528 1527
1380 1384 1388 1393 1396 1402 1404 1407 1413 1418 1427 1426 1423 1434 1435 1426 1428 1430 1437 1442 1447 1447 1450 1450 1445 1452 1464 1472 1475 1487 1497 1509 1515 1516 1517 1519 1520 1521 1519 1520 1522 1524 1524
1375 1380 1383 1387 1392 1396 1399 1402 1404 1409 1413 1416 1409 1417 1421 1419 1419 1421 1428 1432 1438 1438 1440 1432 1414 1431 1465 1469 1463 1481 1493 1502 1508 1510 1513 1517 1516 1518 1517 1518 1520 1520 1520
1372 1375 1378 1382 1385 1388 1391 1393 1397 1400 1403 1405 1405 1409 1409 1409 1412 1415 1416 1419 1423 1437 1448 1436 1459 1464 1469 1463 1467 1477 1485 1494 1500 1503 1509 1511 1513 1513 1512 1514 1515 1516 1516
1367 1370 1373 1377 1380 1384 1385 1388 1393 1396 1398 1401 1402 1404 1404 1407 1407 1411 1413 1415 1419 1426 1410 1450 1449 1460 1463 1465 1469 1477 1482 1487 1493 1499 1505 1507 1508 1508 1508 1510 1511 1512 1514
1365 1368 1371 1375 1377 1379 1384 1386 1388 1392 1395 1396 1397 1400 1403 1407 1409 1413 1414 1418 1419 1418 1411 1417 1448 1457 1460 1462 1468 1475 1479 1482 1489 1496 1501 1503 1502 1501 1503 1505 1506 1509 1511
1366 1369 1371 1374 1376 1376 1379 1383 1387 1389 1392 1395 1397 1400 1404 1406 1407 1408 1408 1411 1412 1415 1419 1425 1418 1445 1454 1459 1466 1469 1472 1479 1485 1490 1495 1498 1497 1496 1501 1500 1503 1505 1508
1366 1367 1370 1373 1376 1380 1380 1382 1388 1391 1393 1394 1396 1398 1401 1405 1406 1407 1407 1408 1408 1410 1421 1426 1427 1439 1447 1452 1459 1465 1471 1477 1482 1486 1489 1492 1491 1491 1496 1496 1500 1500 1504
1369 1371 1372 1375 1378 1380 1383 1387 1386 1388 1392 1392 1392 1394 1397 1399 1404 1408 1411 1413 1413 1414 1421 1427 1431 1438 1442 1449 1456 1464 1469 1473 1478 1480 1482 1483 1484 1487 1491 1494 1495 1499 1501
1370 1374 1376 1377 1379 1383 1386 1388 1388 1387 1390 1389 1387 1392 1395 1400 1406 1410 1412 1414 1414 1418 1422 1426 1434 1439 1444 1449 1455 1460 1466 1470 1473 1474 1475 1476 1481 1484 1488 1493 1492 1497 1498
1376 1378 1379 1382 1379 1386 1388 1391 1388 1387 1389 1390 1390 1394 1398 1399 1405 1409 1410 1413 1417 1421 1427 1431 1435 1441 1444 1448 1453 1456 1461 1464 1465 1468 1470 1473 1477 1481 1485 1486 1490 1495 1497
1380 1383 1383 1383 1384 1385 1390 1392 1389 1390 1390 1391 1394 1395 1400 1405 1408 1410 1413 1415 1419 1423 1427 1433 1437 1439 1444 1447 1450 1453 1454 1457 1459 1462 1466 1470 1474 1479 1480 1480 1487 1491 1494
1384 1389 1390 1387 1383 1388 1393 1394 1392 1392 1393 1394 1398 1400 1402 1404 1408 1412 1416 1420 1422 1426 1429 1431 1435 1438 1441 1443 1446 1448 1450 1451 1454 1459 1465 1470 1472 1473 1476 1480 1481 1486 1491
1388 1391 1391 1390 1388 1392 1394 1394 1395 1396 1395 1394 1399 1404 1405 1407 1411 1414 1418 1421 1425 1428 1430 1433 1435 1437 1439 1442 1444 1446 1447 1451 1455 1458 1462 1465 1466 1468 1473 1477 1480 1483 1487
1390 1393 1395 1392 1391 1395 1396 1396 1396 1397 1397 1399 1401 1406 1409 1411 1414 1417 1420 1423 1425 1428 1431 1434 1436 1438 1441 1444 1445 1447 1450 1450 1452 1456 1458 1459 1462 1466 1470 1473 1477 1481 1485